User: anonymous   Login
Location: Hylvaty SDH
(49.9612°N, 16.4057°E)
Time: 01:46:46
(UTC+01:00)
Language:

Vanguard 3 - Orbit

View from above orbital plane
View from above orbital plane
View from above satellite
View from above satellite

Ground track
Ground track

The orbit data is extracted from the following two-line orbital elements,

1 00020U 59007A   21015.43298735  .00000134  00000-0  45542-4 0  9995
2 00020  33.3508 146.8450 1666646 311.2365  35.5870 11.55791923255137
Epoch (UTC): 15 January 2021 10:23:30
Eccentricity: 0.1666646
inclination: 33.3508°
perigee height: 508 km
apogee height: 3262 km
right ascension of ascending node: 146.8450°
argument of perigee: 311.2365°
revolutions per day: 11.55791923
mean anomaly at epoch: 35.5870°
orbit number at epoch: 25513

The dashed part of the orbit path shows where the satellite is in the earth's shadow,  

DLR